Tracking 29892 objects as of 21-Nov-2024
HD Live streaming from Space Station
objects crossing your sky now

STARLINK-31086

Track STARLINK-31086 now!
10-day predictions
STARLINK-31086 is classified as:


NORAD ID: 58626
Int'l Code: 2023-203J
Perigee: 494.3 km
Apogee: 496.0 km
Inclination: 43.0 °
Period: 94.4 minutes
Semi major axis: 6866 km
RCS: Unknown
Launch date: December 23, 2023
Source: United States (US)
Launch site: AIR FORCE EASTERN TEST RANGE (AFETR)
Your satellite tracking list
Your tracking list is empty




NASA's NSSDC Master Catalog

Two Line Element Set (TLE):
1 58626U 23203J   24325.93225353 -.00000090  00000-0  64127-5 0  9990
2 58626  43.0015 220.2785 0001262 257.7270 102.3440 15.25919916 52356
Source of the keplerian elements: AFSPC